TimePDT,TemperatureF,Dew PointF,Humidity,Sea Level PressureIn,VisibilityMPH,Wind Direction,Wind SpeedMPH,Gust SpeedMPH,PrecipitationIn,Events,Conditions,WindDirDegrees,DateUTC
2:00 AM,61,55,73,29.67,,SSW,2.3,,,,,200,2013-06-26 09:00:00
5:00 AM,54,50,81,29.72,,NE,1.2,,,,,50,2013-06-26 12:00:00
6:00 AM,55.4,51.8,88,29.74,20.0,Calm,Calm,-,N/A,,Partly Cloudy,0,2013-06-26 13:00:00
7:00 AM,59.0,50.0,72,29.75,20.0,Calm,Calm,-,N/A,,Scattered Clouds,0,2013-06-26 14:00:00
8:00 AM,62,53,63,29.75,,East,1.2,,,,,100,2013-06-26 15:00:00
8:00 AM,62.6,53.6,72,29.75,20.0,Calm,Calm,-,N/A,,Scattered Clouds,0,2013-06-26 15:00:00
9:00 AM,68.0,51.8,56,29.75,20.0,Calm,Calm,-,N/A,,Partly Cloudy,0,2013-06-26 16:00:00
10:00 AM,69.8,53.6,56,29.75,20.0,Calm,Calm,-,N/A,,Partly Cloudy,0,2013-06-26 17:00:00
11:00 AM,74,53,37,29.74,,SW,1.2,,,,,230,2013-06-26 18:00:00
11:00 AM,73.4,53.6,50,29.74,20.0,Calm,Calm,-,N/A,,Overcast,0,2013-06-26 18:00:00
12:00 PM,77.0,55.4,47,29.73,20.0,NE,5.8,-,N/A,,Overcast,50,2013-06-26 19:00:00
1:00 PM,80.6,55.4,42,29.73,20.0,Calm,Calm,-,N/A,,Mostly Cloudy,0,2013-06-26 20:00:00
2:00 PM,83,53,25,29.72,,NNW,1.2,,,,,330,2013-06-26 21:00:00
2:00 PM,82.4,53.6,37,29.72,20.0,WSW,2.3,-,N/A,,Mostly Cloudy,250,2013-06-26 21:00:00
3:00 PM,84.2,53.6,35,29.71,20.0,Calm,Calm,-,N/A,,Mostly Cloudy,0,2013-06-26 22:00:00
4:00 PM,87.8,53.6,31,29.70,20.0,WSW,3.5,-,N/A,,Mostly Cloudy,250,2013-06-26 23:00:00
5:00 PM,87,49,17,29.70,,WNW,2.3,,,,,290,2013-06-27 00:00:00
5:00 PM,87.8,51.8,29,29.70,20.0,Calm,Calm,-,N/A,,Mostly Cloudy,0,2013-06-27 00:00:00
6:00 PM,87.8,50.0,27,29.69,20.0,East,4.6,-,N/A,,Mostly Cloudy,90,2013-06-27 01:00:00
6:22 PM,-9999,-9999,N/A,-9999,20.0,East,3.5,-,N/A,Thunderstorm,Thunderstorm,90,2013-06-27 01:22:00
7:00 PM,86.0,55.4,35,29.70,20.0,SSW,4.6,-,N/A,,Scattered Clouds,210,2013-06-27 02:00:00
8:00 PM,85,55,26,29.69,,SW,5.8,,,,,230,2013-06-27 03:00:00
8:00 PM,84.2,57.2,40,29.70,20.0,WSW,5.8,-,N/A,,Scattered Clouds,240,2013-06-27 03:00:00
11:00 PM,68,59,65,29.73,,West,1.2,,,,,270,2013-06-27 06:00:00